Regional Weather Roundup
Issued by NWS

Home | Current Version | Previous Version | Graphics & Text | Print | Product List | Glossary On
Versions: 1 2 3 4 5 6 7 8 9 10 11 12 13 14 15 16 17 18 19 20 21 22 23 24 25 26 27 28 29 30 31 32 33 34 35 36 37 38 39 40 41 42 43 44 45 46 47 48 49 50
000
ASUS43 KLOT 192212
RWRIL

ILLINOIS REGIONAL WEATHER ROUNDUP
NATIONAL WEATHER SERVICE CHICAGO/ROMEOVILLE IL
500 PM CDT SUN APR 19 2015

NOTE: "FAIR" INDICATES FEW OR NO CLOUDS BELOW 12,000 FEET WITH NO
SIGNIFICANT WEATHER AND/OR OBSTRUCTIONS TO VISIBILITY.

* THESE STATIONS ARE NOT UNDER NWS QUALITY CONTROL. THEY ALSO MAY NOT
  REPORT WEATHER SUCH AS PRECIPITATION OR FOG.

ILZ001-002-007-009-015-016-024-192300-
NORTHWEST ILLINOIS

CITY           SKY/WX    TMP DP  RH WIND       PRES   REMARKS
MOLINE         RAIN      58  52  80 SE7       29.48
STERLING*      CLOUDY    57  54  88 CALM      29.50F
SAVANNA*       RAIN      62  50  64 SE10      29.49F
$$

ILZ003-004-008-010-011-017-018-192300-
NORTH CENTRAL ILLINOIS

CITY           SKY/WX    TMP DP  RH WIND       PRES   REMARKS
ROCKFORD       LGT RAIN  68  42  38 E8        29.50F
FREEPORT*      CLOUDY    61  51  68 S8        29.51F
ROCHELLE*      DRIZZLE   64  49  58 CALM      29.49F
DE KALB*       LGT RAIN  59  51  74 E6        29.51F
PERU*          LGT RAIN  59  53  81 N5        29.49F
$$

ILZ005-006-012>014-019>023-192300-
NORTHEAST ILLINOIS

CITY           SKY/WX    TMP DP  RH WIND       PRES   REMARKS
CHICAGO-OHARE  LGT RAIN  53  45  74 E9        29.53F
CHICAGO-MIDWAY RAIN      55  50  83 E10       29.52F
AURORA         LGT RAIN  60  51  72 E6        29.50F
LANSING*       RAIN      55  52  89 E9        29.51F
JOLIET*        RAIN      57  54  91 SE9       29.51F
WAUKEGAN       LGT RAIN  51  37  58 NE6       29.54F
DUPAGE AIRPORT LGT RAIN  58  48  69 E9        29.51F
KANKAKEE*      LGT RAIN  55  53  95 NE12      29.48F
WHEELING       LGT RAIN  50  41  71 NE7       29.54F
MORRIS*        RAIN      56  53  89 E10       29.47F
ROMEOVILLE*    LGT RAIN  56  52  86 E14       29.51F
NORTHERLY ISL    N/A     49  44  83 N6          N/A
$$

LMZ740>746-192300-
SOUTHERN LAKE MICHIGAN

STATION/POSITION SKY/WX   TEMP    WIND        PRES    VSBY  WAVE
                          AIR SEA DIR/SP/G                  HT/PER
                          (F)     (DEG/KT/KT) (MB)    (MI)  (FT/S)
HARRISON CRIB              45     360/  8/  9   N/A
BURNHAM HARBOR             49      10/  5/  9   N/A
CALUMET HARBOR             50      20/  4/  6   N/A
BURNS HARBOR               56      80/  9/ 15 1001.4F
MICHIGAN CITY              56      60/ 12/ 15   N/A
MICHIGAN CITY 6N           50 44  100/ 10/ 12   N/A           1/ 5
$$

ILZ025>027-034>036-040-047-049-050-058-095>099-192300-
WEST-CENTRAL ILLINOIS

CITY           SKY/WX    TMP DP  RH WIND       PRES   REMARKS
QUINCY         HVY RAIN  60  57  89 W6        29.51F FOG
GALESBURG*     LGT RAIN  58  55  89 CALM      29.49F
MACOMB*        RAIN      60  59  96 CALM      29.52F
JACKSONVILLE*  HVY RAIN  60  58  94 W5        29.50S
PITTSFIELD*    LGT RAIN  62  60  91 W10       29.53S
$$

ILZ028>032-037-038-041>044-048-051>054-059>061-192300-
CENTRAL ILLINOIS

CITY           SKY/WX    TMP DP  RH WIND       PRES   REMARKS
PONTIAC        LGT RAIN  56  55  94 NE14      29.48F
BLOOMINGTON    LGT RAIN  55  55 100 NE14      29.47F FOG
DECATUR        CLOUDY    57  55  93 N8        29.44F FOG
PEORIA         LGT RAIN  59  54  83 NW5       29.48F
LACON*         LGT RAIN  57  55  91 N3        29.47F
LINCOLN*       HVY RAIN  58  57  95 E6        29.45F
SPRINGFIELD    HVY RAIN  59  57  93 N5        29.47F VSB 1
TAYLORVILLE    DRIZZLE   57  55  94 N5        29.45F
$$

ILZ033-039-045-046-055>057-062-063-192300-
EAST-CENTRAL ILLINOIS

CITY           SKY/WX    TMP DP  RH WIND       PRES   REMARKS
CHAMPAIGN      LGT RAIN  57  57 100 N6        29.42F FOG
DANVILLE*      LGT RAIN  58  57  97 E7        29.40F
RANTOUL*       HVY RAIN  57  56  96 NE8       29.43F
MATTOON        LGT RAIN  61  61 100 CALM      29.41F FOG
PARIS*         DRIZZLE   60  60  99 E5        29.42F
$$

ILZ079-100>102-192300-
SOUTHWEST ILLINOIS

CITY           SKY/WX    TMP DP  RH WIND       PRES   REMARKS
ALTON          LGT RAIN  59  59 100 NW8G20    29.48
BELLEVILLE     LGT RAIN  61  61 100 W6        29.49S
CAHOKIA*       LGT RAIN  62  58  86 SW6       29.50F
SPARTA*        CLOUDY    62  61  96 NW7       29.51F
$$

ILZ064>066-069>071-074>076-080>082-084>086-088>090-092>094-192300-
SOUTH-CENTRAL ILLINOIS

CITY           SKY/WX    TMP DP  RH WIND       PRES   REMARKS
CARBONDALE     LGT RAIN  63  60  90 NW10      29.49F
CAIRO*         CLOUDY    67  61  81 W12G23    29.53R
EFFINGHAM*     CLOUDY    60  58  92 SW8       29.45F FOG
MARION         LGT RAIN  64  63  94 NW14      29.47F
MT. VERNON     CLOUDY    61  55  82 W8        29.49R
CENTRALIA*     HVY RAIN  59  57  93 W9        29.49R
SALEM*         HVY RAIN  61  59  91 W10G16    29.48R
METROPOLIS*    CLOUDY    67  65  93 W8        29.51R
$$

ILZ067-068-072-073-078-083-087-091-192300-
SOUTHEAST ILLINOIS

CITY           SKY/WX    TMP DP  RH WIND       PRES   REMARKS
LAWRENCEVILLE  CLOUDY    65  64  97 S9        29.43F
FLORA*         CLOUDY    60  59  94 W9        29.46S
FAIRFIELD*     LGT RAIN  62  61  97 W9        29.45R
HARRISBURG*    LGT RAIN  64  64  99 W13G28    29.49R
ROBINSON*      LGT RAIN  65  64  95 S10       29.48R
CARMI*         RAIN      66  62  84 SW8       29.42F
$$

ABBREVIATIONS USED IN REMARKS
   TC - TEMPERATURE IN CELSIUS
  WCI - WIND CHILL INDEX
   HX - HEAT INDEX
  VSB - VISIBILITY
$$



USA.gov is the U.S. government's official web portal to all federal, state and local government web resources and services.